{"data":{"norad_id":48135,"epoch":"2026-05-25T01:05:17.388960Z","epoch_age_seconds":68197,"freshness":"FRESH","line1":"1 48135U 21027AV  26145.04534015  .00000481  00000+0  27261-4 0  9997","line2":"2 48135  53.1570 172.8255 0001117  90.2807 269.8323 15.31700698284175","mean_motion":15.31700698,"eccentricity":0.0001117,"inclination_deg":53.157,"raan_deg":172.8255,"arg_perigee_deg":90.2807,"mean_anomaly_deg":269.8323,"bstar":2.7261e-5,"rev_number":28417,"period_min":94.013145119034,"perigee_km":469.97289519681,"apogee_km":471.50293385271,"semimajor_km":6848.8749145248,"source":"CELESTRAK","updated_at":"2026-05-25T13:38:16.649230Z"}}